Regional Weather Roundup
Issued by NWS

Home | Current Version | Previous Version | Graphics & Text | Print | Product List | Glossary Off
Versions: 1 2 3 4 5 6 7 8 9 10 11 12 13 14 15 16 17 18 19 20 21 22 23 24 25 26 27 28 29 30 31 32 33 34 35 36 37 38 39 40 41 42 43 44 45 46 47 48 49 50

430
ASUS43 KMKX 181700
RWRWI

WISCONSIN REGIONAL WEATHER ROUNDUP
NATIONAL WEATHER SERVICE MILWAUKEE/SULLIVAN WI
1200 PM CDT WED OCT 18 2017

NOTE: "FAIR" INDICATES FEW OR NO CLOUDS BELOW 12,000 FEET WITH NO
SIGNIFICANT WEATHER AND/OR OBSTRUCTIONS TO VISIBILITY.

WIZ001-002-006>008-014>016-023>028-181800-
NORTHWEST WISCONSIN

CITY           SKY/WX    TMP DP  RH WIND       PRES   REMARKS
SUPERIOR ARPT  CLOUDY    64  45  50 SW14G23   29.71S
ASHLAND        PTSUNNY   67  46  47 SW14      29.72R
HAYWARD        MOSUNNY   65  45  48 SW10G18   29.78R
SIREN          MOSUNNY   66  45  47 W14       29.78R
CUMBERLAND     CLOUDY    59  46  63 S9        29.80R
RICE LAKE      CLOUDY    64  47  54 S15       29.81F
CHETEK         CLOUDY    63  50  61 S12G17    29.82F
LADYSMITH      SUNNY     65  49  56 S16G23    29.83F
EAU CLAIRE     NOT AVBL
MENOMONIE      CLOUDY    65  48  53 S12       29.83F
NEW RICHMOND   CLOUDY    64  47  53 SW14      29.83R
OSCEOLA        MOSUNNY   63  48  58 SW10G17   29.85R
$$

WIZ003>005-009-010-017-018-181800-
NORTH CENTRAL WISCONSIN

CITY           SKY/WX    TMP DP  RH WIND       PRES   REMARKS
MANITOWISH WTR SUNNY     65  47  51 S20G26    29.80F
ARBOR VITAE    SUNNY     64  49  57 SW14G22   29.82F
WOODRUFF       SUNNY     64  49  57 SW14G22   29.82F
RHINELANDER    SUNNY     64  48  56 SW17G28   29.86F
EAGLE RIVER    SUNNY     64  44  46 SW9G18    29.83F
LAND O LAKES   SUNNY     65  44  46 SW9G23    29.83F
PHILLIPS       CLOUDY    65  48  54 SW15G22   29.80F
TOMAHAWK       SUNNY     63  47  55 S3        29.86F
MEDFORD        SUNNY     62  47  58 S13G20    29.88S
MERRILL        SUNNY     65  48  54 SW9G17    29.89F
$$

WIZ029-030-035-036-043>047-181800-
CENTRAL WISCONSIN

CITY           SKY/WX    TMP DP  RH WIND       PRES   REMARKS
WAUSAU         SUNNY     63  47  55 S12G22    29.88F
MOSINEE        MOSUNNY   63  48  59 S13G18    29.91F
MARSHFIELD     SUNNY     65  46  50 S17G25    29.89F
STEVENS POINT  SUNNY     62  46  57 S13       29.93F
WAUPACA        SUNNY     66  48  50 S13       29.95F
WAUTOMA        SUNNY     66  47  50 S10G22    29.95
WISC RAPIDS    SUNNY     65  48  54 SW15      29.93F
CAMP DOUGLAS   NOT AVBL
$$

WIZ011>013-019>022-031-037>040-048>050-181800-
NORTHEAST WISCONSIN

CITY           SKY/WX    TMP DP  RH WIND       PRES   REMARKS
ANTIGO         MOSUNNY   62  48  59 SW17      29.91F
SHAWANO        SUNNY     67  47  49 S8G17     29.92F
OCONTO         SUNNY     65  47  53 S5G22     29.93F
STURGEON BAY   SUNNY     67  48  50 S16G25    29.94F
GREEN BAY      SUNNY     63  49  60 SW15G25   29.96F
MANITOWOC      SUNNY     64  49  57 SE15      29.99F
APPLETON       NOT AVBL
CLINTONVILLE   SUNNY     64  45  48 S16       29.94F
OSHKOSH        SUNNY     65  48  54 S16G22    29.97S
$$

WIZ032>034-041-042-053>061-181800-
SOUTHWEST WISCONSIN

CITY           SKY/WX    TMP DP  RH WIND       PRES   REMARKS
LA CROSSE      SUNNY     65  48  54 S15       29.90F
SPARTA         SUNNY     63  48  58 S13G20    29.93F
VIROQUA        SUNNY     65  48  55 S12       29.95F
BOSCOBEL       SUNNY     68  47  46 S13G20    29.97F
PRAIRIE DU CHI SUNNY     65  45  47 S9G16     29.97F
PLATTEVILLE    SUNNY     64  48  56 S13       30.03S
$$

WIZ056-057-062-063-064-067-068-181800-
SOUTH CENTRAL WISCONSIN

CITY           SKY/WX    TMP DP  RH WIND       PRES   REMARKS
REEDSBURG      SUNNY     64  47  54 S13       29.97F
BARABOO/DELLS  SUNNY     62  45  53 S15G21    29.98F
LONE ROCK      SUNNY     67  50  54 S10       29.98F
MINERAL POINT  SUNNY     64  48  55 S12G17    30.02S
MADISON        SUNNY     65  46  50 S12       30.01F
MIDDLETON      SUNNY     65  46  49 SW16      30.02S
WATERTOWN      SUNNY     65  47  52 SW13      30.03S
MONROE         SUNNY     63  45  51 S17       30.05S
JANESVILLE     SUNNY     68  45  42 S15       30.05F
$$

WIZ051-052-058>065-066-070>072-181800-
SOUTHEAST WISCONSIN

CITY           SKY/WX    TMP DP  RH WIND       PRES   REMARKS
MILWAUKEE      SUNNY     68  45  43 S21G26    30.05F
WAUKESHA       SUNNY     64  45  48 S13G18    30.06F
MILWAUKEE/TIMM SUNNY     66  39  37 SW14G23   30.05R
RACINE         SUNNY     68  44  42 S16G28    30.08F
BURLINGTON     SUNNY     67  47  48 S12G20    30.07F
KENOSHA        SUNNY     67  42  40 SW16G25   30.08F
FOND DU LAC    SUNNY     67  43  41 SW16G24   29.99S
SHEBOYGAN      SUNNY     69  48  47 S20G28    30.00S
WEST BEND      SUNNY     66  43  42 SW15G24   30.02S
JUNEAU         SUNNY     63  46  52 S14       30.03S
$$

LSZ147-162-181800-
LAKE SUPERIOR

STATION/POSITION TIME  TEMP    WIND        PRES    WAVE
                       AIR SEA DIR/SP/G            HT/PER
                 (UTC) (F)     (DEG/KT/KT) (MB)    (FT/S)
W MID LAKE BUOY  1550   56 53              1004.6F   3/ 5
DEVILS ISLAND    1600   60     230/  7/  9 1005.8S
PORT WING        1440          210/ 10/ 21 1006.4
SAXON HARBOR     1630   69     190/ 15/ 25 1005.8R
$$

LMZ867-665-643>646-181800-
LAKE MICHIGAN

STATION/POSITION TIME  TEMP    WIND        PRES    WAVE
                       AIR SEA DIR/SP/G            HT/PER
                 (UTC) (F)     (DEG/KT/KT) (MB)    (FT/S)
S GREEN BAY BUOY 1630   60 58  210/ 14/ 17 1014.0S
N MID LAKE BUOY  1550   60 59  190/ 25/ 29 1014.4F   6/ 6
NORTHPORT PIER   1640   62     160/  7/ 15 1013.9F
KEWAUNEE LAKESHO 1630   58     170/ 15/ 18 1014.6R
SHEBOYGAN LAKESH 1600   56     180/ 23/ 25 1015.8F
PORT WASHINGTON  1640   63     200/  6/ 11 1017.9S
ATWATER BUOY     1509   57 53  180/ 12/ 14 1018.4F
MILWAUKEE LAKESH 1630   63     190/ 14/ 16   N/A
S MID LAKE BUOY  1550   59 61  210/ 19/ 23 1020.0F   5/ 6
KENOSHA   LAKESH 1600   63     200/ 10/ 18 1019.0
$$

TC  - TEMPERATURE IN CELSIUS
VSB - VISIBILITY IN STATUTE MILES
WCI - WIND CHILL INDEX
HX  - HEAT INDEX





USA.gov is the U.S. government's official web portal to all federal, state and local government web resources and services.